Time,TemperatureF,DewpointF,PressureIn,WindDirection,WindDirectionDegrees,WindSpeedMPH,WindSpeedGustMPH,Humidity,HourlyPrecipIn,Conditions,Clouds,dailyrainin,SoftwareType,DateUTC
2013-12-16 00:00:00,33.8,22.5,29.93,West,266,8.0,8.0,63,0.00,,,0.00,Wunderground v.1.15,2013-12-16 05:00:00,
2013-12-16 00:05:00,33.8,22.5,29.94,WNW,299,9.0,13.0,63,0.00,,,0.00,Wunderground v.1.15,2013-12-16 05:05:00,
2013-12-16 00:10:00,33.6,22.7,29.94,WSW,247,8.0,13.0,64,0.00,,,0.00,Wunderground v.1.15,2013-12-16 05:10:00,
2013-12-16 00:15:00,33.6,22.7,29.94,West,276,8.0,8.0,64,0.00,,,0.00,Wunderground v.1.15,2013-12-16 05:15:00,
2013-12-16 00:20:00,33.5,23.0,29.94,West,266,7.0,8.0,65,0.00,,,0.00,Wunderground v.1.15,2013-12-16 05:20:00,
2013-12-16 00:25:00,33.5,23.0,29.94,WNW,294,7.0,7.0,65,0.00,,,0.00,Wunderground v.1.15,2013-12-16 05:25:00,
2013-12-16 00:30:00,33.5,23.0,29.94,West,281,8.0,8.0,65,0.00,,,0.00,Wunderground v.1.15,2013-12-16 05:30:00,
2013-12-16 00:35:00,33.5,23.0,29.94,WNW,290,8.0,10.0,65,0.00,,,0.00,Wunderground v.1.15,2013-12-16 05:35:00,
2013-12-16 00:45:00,33.3,22.8,29.95,WSW,244,8.0,9.0,65,0.00,,,0.00,Wunderground v.1.15,2013-12-16 05:45:00,
2013-12-16 00:55:00,33.2,22.7,29.95,WSW,257,8.0,8.0,65,0.00,,,0.00,Wunderground v.1.15,2013-12-16 05:55:00,
2013-12-16 01:05:00,33.0,22.9,29.95,WNW,293,6.0,7.0,66,0.00,,,0.00,Wunderground v.1.15,2013-12-16 06:05:00,
2013-12-16 01:10:00,32.9,22.8,29.95,NW,311,5.0,7.0,66,0.00,,,0.00,Wunderground v.1.15,2013-12-16 06:10:00,
2013-12-16 01:15:00,32.9,21.7,29.95,WNW,302,6.0,6.0,63,0.00,,,0.00,Wunderground v.1.15,2013-12-16 06:15:00,
2013-12-16 01:25:00,32.6,21.0,29.96,West,280,7.0,7.0,62,0.00,,,0.00,Wunderground v.1.15,2013-12-16 06:25:00,
2013-12-16 01:35:00,32.6,21.0,29.96,NW,318,9.0,12.0,62,0.00,,,0.00,Wunderground v.1.15,2013-12-16 06:35:00,
2013-12-16 01:40:00,32.4,20.8,29.97,West,270,9.0,12.0,62,0.00,,,0.00,Wunderground v.1.15,2013-12-16 06:40:00,
2013-12-16 01:45:00,32.4,20.8,29.96,WNW,282,9.0,11.0,62,0.00,,,0.00,Wunderground v.1.15,2013-12-16 06:45:00,
2013-12-16 01:55:00,32.2,21.0,29.97,WNW,292,6.0,7.0,63,0.00,,,0.00,Wunderground v.1.15,2013-12-16 06:55:00,
2013-12-16 02:00:00,32.2,21.0,29.98,NW,321,7.0,7.0,63,0.00,,,0.00,Wunderground v.1.15,2013-12-16 07:00:00,
2013-12-16 02:05:00,32.2,20.6,29.98,West,274,7.0,7.0,62,0.00,,,0.00,Wunderground v.1.15,2013-12-16 07:05:00,
2013-12-16 02:15:00,32.2,20.6,29.99,WSW,253,7.0,10.0,62,0.00,,,0.00,Wunderground v.1.15,2013-12-16 07:15:00,
2013-12-16 02:25:00,32.0,20.1,29.99,WNW,297,9.0,14.0,61,0.00,,,0.00,Wunderground v.1.15,2013-12-16 07:25:00,
2013-12-16 02:30:00,32.0,20.1,29.99,SW,226,9.0,13.0,61,0.00,,,0.00,Wunderground v.1.15,2013-12-16 07:30:00,
2013-12-16 02:35:00,32.0,19.7,29.99,WNW,296,9.0,13.0,60,0.00,,,0.00,Wunderground v.1.15,2013-12-16 07:35:00,
2013-12-16 02:50:00,31.7,19.4,30.00,NNW,337,9.0,9.0,60,0.00,,,0.00,Wunderground v.1.15,2013-12-16 07:50:00,
2013-12-16 02:55:00,31.7,19.4,30.00,NW,305,8.0,9.0,60,0.00,,,0.00,Wunderground v.1.15,2013-12-16 07:55:00,
2013-12-16 03:00:00,31.6,19.3,30.00,NNW,327,7.0,7.0,60,0.00,,,0.00,Wunderground v.1.15,2013-12-16 08:00:00,
2013-12-16 03:05:00,31.4,19.5,30.00,WNW,299,6.0,7.0,61,0.00,,,0.00,Wunderground v.1.15,2013-12-16 08:05:00,
2013-12-16 03:15:00,31.3,18.6,30.01,NW,318,7.0,10.0,59,0.00,,,0.00,Wunderground v.1.15,2013-12-16 08:15:00,
2013-12-16 03:25:00,31.0,17.9,30.01,WNW,294,8.0,11.0,58,0.00,,,0.00,Wunderground v.1.15,2013-12-16 08:25:00,
2013-12-16 03:35:00,30.8,17.7,30.01,NNW,342,10.0,10.0,58,0.00,,,0.00,Wunderground v.1.15,2013-12-16 08:35:00,
2013-12-16 03:40:00,30.8,17.7,30.01,West,280,9.0,10.0,58,0.00,,,0.00,Wunderground v.1.15,2013-12-16 08:40:00,
2013-12-16 03:50:00,30.7,17.7,30.01,WNW,282,10.0,23.0,58,0.00,,,0.00,Wunderground v.1.15,2013-12-16 08:50:00,
2013-12-16 03:55:00,30.5,18.3,30.02,NW,306,9.0,9.0,60,0.00,,,0.00,Wunderground v.1.15,2013-12-16 08:55:00,
2013-12-16 04:05:00,29.8,18.4,30.02,NW,310,3.0,8.0,62,0.00,,,0.00,Wunderground v.1.15,2013-12-16 09:05:00,
2013-12-16 04:20:00,30.1,17.9,30.02,NNW,338,6.0,10.0,60,0.00,,,0.00,Wunderground v.1.15,2013-12-16 09:20:00,
2013-12-16 04:25:00,30.1,18.3,30.02,West,278,8.0,12.0,61,0.00,,,0.00,Wunderground v.1.15,2013-12-16 09:25:00,
2013-12-16 04:35:00,29.8,18.0,30.03,West,276,7.0,9.0,61,0.00,,,0.00,Wunderground v.1.15,2013-12-16 09:35:00,
2013-12-16 04:45:00,29.3,17.5,30.03,NW,322,5.0,6.0,61,0.00,,,0.00,Wunderground v.1.15,2013-12-16 09:45:00,
2013-12-16 04:55:00,28.5,17.1,30.04,North,10,8.0,9.0,62,0.00,,,0.00,Wunderground v.1.15,2013-12-16 09:55:00,
2013-12-16 05:00:00,28.0,17.4,30.04,North,5,8.0,8.0,64,0.00,,,0.00,Wunderground v.1.15,2013-12-16 10:00:00,
2013-12-16 05:05:00,27.9,16.9,30.04,NNE,15,7.0,8.0,63,0.00,,,0.00,Wunderground v.1.15,2013-12-16 10:05:00,
2013-12-16 05:15:00,27.6,17.4,30.05,NNE,15,7.0,14.0,65,0.00,,,0.00,Wunderground v.1.15,2013-12-16 10:15:00,
2013-12-16 05:25:00,27.4,17.2,30.05,NNE,15,6.0,6.0,65,0.00,,,0.00,Wunderground v.1.15,2013-12-16 10:25:00,
2013-12-16 05:35:00,27.3,17.1,30.06,North,10,6.0,6.0,65,0.00,,,0.00,Wunderground v.1.15,2013-12-16 10:35:00,
2013-12-16 05:45:00,27.1,16.9,30.05,NNW,346,5.0,6.0,65,0.00,,,0.00,Wunderground v.1.15,2013-12-16 10:45:00,
2013-12-16 05:50:00,27.0,16.4,30.05,North,5,5.0,5.0,64,0.00,,,0.00,Wunderground v.1.15,2013-12-16 10:50:00,
2013-12-16 06:00:00,26.8,16.2,30.06,North,353,6.0,6.0,64,0.00,,,0.00,Wunderground v.1.15,2013-12-16 11:00:00,
2013-12-16 06:10:00,26.8,15.9,30.07,NNW,335,3.0,5.0,63,0.00,,,0.00,Wunderground v.1.15,2013-12-16 11:10:00,
2013-12-16 06:20:00,26.8,15.5,30.07,NNW,344,5.0,6.0,62,0.00,,,0.00,Wunderground v.1.15,2013-12-16 11:20:00,
2013-12-16 06:25:00,26.8,15.9,30.08,NNE,20,5.0,9.0,63,0.00,,,0.00,Wunderground v.1.15,2013-12-16 11:25:00,
2013-12-16 06:35:00,26.8,15.5,30.09,NNW,340,4.0,4.0,62,0.00,,,0.00,Wunderground v.1.15,2013-12-16 11:35:00,
2013-12-16 06:40:00,26.8,15.5,30.09,NNW,334,6.0,7.0,62,0.00,,,0.00,Wunderground v.1.15,2013-12-16 11:40:00,
2013-12-16 06:50:00,26.8,15.5,30.09,North,356,4.0,4.0,62,0.00,,,0.00,Wunderground v.1.15,2013-12-16 11:50:00,
2013-12-16 06:55:00,26.8,15.5,30.09,North,355,5.0,5.0,62,0.00,,,0.00,Wunderground v.1.15,2013-12-16 11:55:00,
2013-12-16 07:05:00,26.7,15.4,30.10,North,3,6.0,6.0,62,0.00,,,0.00,Wunderground v.1.15,2013-12-16 12:05:00,
2013-12-16 07:15:00,26.7,15.4,30.10,North,1,4.0,7.0,62,0.00,,,0.00,Wunderground v.1.15,2013-12-16 12:15:00,
2013-12-16 07:20:00,26.2,14.9,30.10,NNW,336,5.0,9.0,62,0.00,,,0.00,Wunderground v.1.15,2013-12-16 12:20:00,
2013-12-16 07:30:00,26.0,14.8,30.10,NNW,344,7.0,7.0,62,0.00,,,0.00,Wunderground v.1.15,2013-12-16 12:30:00,
2013-12-16 07:40:00,25.9,14.7,30.10,NNW,348,5.0,6.0,62,0.00,,,0.00,Wunderground v.1.15,2013-12-16 12:40:00,
2013-12-16 07:50:00,25.9,14.7,30.11,WNW,294,5.0,8.0,62,0.00,,,0.00,Wunderground v.1.15,2013-12-16 12:50:00,
2013-12-16 07:55:00,25.7,14.5,30.11,NNE,15,7.0,8.0,62,0.00,,,0.00,Wunderground v.1.15,2013-12-16 12:55:00,
2013-12-16 08:05:00,25.3,14.5,30.11,NNE,26,7.0,8.0,63,0.00,,,0.00,Wunderground v.1.15,2013-12-16 13:05:00,
2013-12-16 08:20:00,25.1,14.3,30.12,NNE,28,6.0,7.0,63,0.00,,,0.00,Wunderground v.1.15,2013-12-16 13:20:00,
2013-12-16 08:25:00,25.1,14.3,30.12,North,3,5.0,7.0,63,0.00,,,0.00,Wunderground v.1.15,2013-12-16 13:25:00,
2013-12-16 08:30:00,25.0,14.9,30.12,North,359,4.0,4.0,65,0.00,,,0.00,Wunderground v.1.15,2013-12-16 13:30:00,
2013-12-16 08:40:00,25.1,14.6,30.13,NE,38,2.0,2.0,64,0.00,,,0.00,Wunderground v.1.15,2013-12-16 13:40:00,
2013-12-16 08:50:00,25.1,14.6,30.13,NNE,15,3.0,3.0,64,0.00,,,0.00,Wunderground v.1.15,2013-12-16 13:50:00,
2013-12-16 08:55:00,25.3,14.8,30.13,NNE,15,3.0,3.0,64,0.00,,,0.00,Wunderground v.1.15,2013-12-16 13:55:00,
2013-12-16 09:05:00,25.4,14.9,30.13,NNE,15,3.0,3.0,64,0.00,,,0.00,Wunderground v.1.15,2013-12-16 14:05:00,
2013-12-16 09:15:00,25.7,15.2,30.14,NNE,15,1.0,2.0,64,0.00,,,0.00,Wunderground v.1.15,2013-12-16 14:15:00,
2013-12-16 09:25:00,25.9,15.4,30.14,NNE,15,1.0,5.0,64,0.00,,,0.00,Wunderground v.1.15,2013-12-16 14:25:00,
2013-12-16 09:30:00,25.7,15.2,30.14,NNE,21,2.0,4.0,64,0.00,,,0.00,Wunderground v.1.15,2013-12-16 14:30:00,
2013-12-16 09:35:00,25.9,16.1,30.14,NNW,345,3.0,4.0,66,0.00,,,0.00,Wunderground v.1.15,2013-12-16 14:35:00,
2013-12-16 09:45:00,26.0,15.8,30.14,NNE,23,2.0,3.0,65,0.00,,,0.00,Wunderground v.1.15,2013-12-16 14:45:00,
2013-12-16 09:50:00,26.2,16.4,30.15,NNE,23,2.0,2.0,66,0.00,,,0.00,Wunderground v.1.15,2013-12-16 14:50:00,
2013-12-16 10:05:00,26.2,16.0,30.16,East,88,3.0,3.0,65,0.00,,,0.00,Wunderground v.1.15,2013-12-16 15:05:00,
2013-12-16 10:10:00,26.5,16.7,30.16,East,88,2.0,4.0,66,0.00,,,0.00,Wunderground v.1.15,2013-12-16 15:10:00,
2013-12-16 10:15:00,26.5,16.7,30.16,NNW,327,2.0,4.0,66,0.00,,,0.00,Wunderground v.1.15,2013-12-16 15:15:00,
2013-12-16 10:25:00,26.5,16.7,30.15,ENE,65,3.0,5.0,66,0.00,,,0.00,Wunderground v.1.15,2013-12-16 15:25:00,
2013-12-16 10:30:00,26.5,16.7,30.16,NNE,15,3.0,3.0,66,0.00,,,0.00,Wunderground v.1.15,2013-12-16 15:30:00,
2013-12-16 10:35:00,26.8,17.0,30.16,ENE,71,3.0,3.0,66,0.00,,,0.00,Wunderground v.1.15,2013-12-16 15:35:00,
2013-12-16 10:40:00,26.9,17.0,30.16,NNW,335,2.0,2.0,66,0.00,,,0.00,Wunderground v.1.15,2013-12-16 15:40:00,
2013-12-16 10:50:00,26.9,17.4,30.15,NE,38,4.0,4.0,67,0.00,,,0.00,Wunderground v.1.15,2013-12-16 15:50:00,
2013-12-16 11:00:00,27.1,17.6,30.15,NNE,15,4.0,5.0,67,0.00,,,0.00,Wunderground v.1.15,2013-12-16 16:00:00,
2013-12-16 11:10:00,27.1,17.2,30.15,North,10,5.0,5.0,66,0.00,,,0.00,Wunderground v.1.15,2013-12-16 16:10:00,
2013-12-16 11:15:00,27.2,17.3,30.15,NNE,29,4.0,5.0,66,0.00,,,0.00,Wunderground v.1.15,2013-12-16 16:15:00,
2013-12-16 11:20:00,26.9,17.4,30.15,NNW,336,4.0,4.0,67,0.00,,,0.00,Wunderground v.1.15,2013-12-16 16:20:00,
2013-12-16 11:25:00,27.1,17.2,30.15,East,91,4.0,4.0,66,0.00,,,0.00,Wunderground v.1.15,2013-12-16 16:25:00,
2013-12-16 11:35:00,26.8,17.0,30.15,NNE,32,3.0,6.0,66,0.00,,,0.00,Wunderground v.1.15,2013-12-16 16:35:00,
2013-12-16 11:40:00,26.6,17.1,30.15,ENE,78,5.0,6.0,67,0.00,,,0.00,Wunderground v.1.15,2013-12-16 16:40:00,
2013-12-16 11:50:00,26.3,16.8,30.15,NNE,19,5.0,5.0,67,0.00,,,0.00,Wunderground v.1.15,2013-12-16 16:50:00,
2013-12-16 11:55:00,26.5,17.4,30.14,North,10,4.0,5.0,68,0.00,,,0.00,Wunderground v.1.15,2013-12-16 16:55:00,
2013-12-16 12:00:00,26.6,17.1,30.15,ENE,59,3.0,3.0,67,0.00,,,0.00,Wunderground v.1.15,2013-12-16 17:00:00,
2013-12-16 12:10:00,26.5,17.4,30.14,ENE,73,5.0,8.0,68,0.00,,,0.00,Wunderground v.1.15,2013-12-16 17:10:00,
2013-12-16 12:15:00,26.5,17.7,30.14,East,92,6.0,6.0,69,0.00,,,0.00,Wunderground v.1.15,2013-12-16 17:15:00,
2013-12-16 12:25:00,26.9,18.1,30.14,North,5,3.0,7.0,69,0.00,,,0.00,Wunderground v.1.15,2013-12-16 17:25:00,
2013-12-16 12:35:00,27.5,18.7,30.14,NNE,15,5.0,9.0,69,0.00,,,0.00,Wunderground v.1.15,2013-12-16 17:35:00,
2013-12-16 12:45:00,28.4,19.2,30.14,NE,46,5.0,5.0,68,0.00,,,0.00,Wunderground v.1.15,2013-12-16 17:45:00,
2013-12-16 12:55:00,28.8,19.9,30.13,North,5,4.0,5.0,69,0.00,,,0.00,Wunderground v.1.15,2013-12-16 17:55:00,
2013-12-16 13:05:00,28.7,18.8,30.14,NNE,15,4.0,4.0,66,0.00,,,0.00,Wunderground v.1.15,2013-12-16 18:05:00,
2013-12-16 13:10:00,28.4,18.8,30.14,ENE,60,4.0,4.0,67,0.00,,,0.00,Wunderground v.1.15,2013-12-16 18:10:00,
2013-12-16 13:20:00,28.4,18.8,30.14,NNE,33,4.0,4.0,67,0.00,,,0.00,Wunderground v.1.15,2013-12-16 18:20:00,
2013-12-16 13:30:00,28.8,18.9,30.13,NNE,29,4.0,6.0,66,0.00,,,0.00,Wunderground v.1.15,2013-12-16 18:30:00,
2013-12-16 13:40:00,29.0,19.1,30.13,ENE,67,4.0,4.0,66,0.00,,,0.00,Wunderground v.1.15,2013-12-16 18:40:00,
2013-12-16 13:50:00,29.7,19.0,30.13,ENE,65,3.0,6.0,64,0.00,,,0.00,Wunderground v.1.15,2013-12-16 18:50:00,
2013-12-16 13:55:00,30.0,19.3,30.12,East,80,4.0,5.0,64,0.00,,,0.00,Wunderground v.1.15,2013-12-16 18:55:00,
2013-12-16 14:00:00,29.7,19.0,30.13,East,88,4.0,4.0,64,0.00,,,0.00,Wunderground v.1.15,2013-12-16 19:00:00,
2013-12-16 14:10:00,29.9,19.2,30.12,East,87,3.0,3.0,64,0.00,,,0.00,Wunderground v.1.15,2013-12-16 19:10:00,
2013-12-16 14:15:00,29.7,19.0,30.12,East,87,3.0,4.0,64,0.00,,,0.00,Wunderground v.1.15,2013-12-16 19:15:00,
2013-12-16 14:25:00,29.6,18.5,30.13,ENE,59,2.0,3.0,63,0.00,,,0.00,Wunderground v.1.15,2013-12-16 19:25:00,
2013-12-16 14:35:00,29.6,18.9,30.13,ENE,59,2.0,5.0,64,0.00,,,0.00,Wunderground v.1.15,2013-12-16 19:35:00,
2013-12-16 14:40:00,29.6,18.5,30.13,ENE,59,2.0,2.0,63,0.00,,,0.00,Wunderground v.1.15,2013-12-16 19:40:00,
2013-12-16 14:50:00,29.6,18.5,30.14,ENE,59,1.0,2.0,63,0.00,,,0.00,Wunderground v.1.15,2013-12-16 19:50:00,
2013-12-16 14:55:00,29.9,18.5,30.13,ENE,59,1.0,2.0,62,0.00,,,0.00,Wunderground v.1.15,2013-12-16 19:55:00,
2013-12-16 15:05:00,30.0,18.5,30.13,ENE,59,1.0,2.0,62,0.00,,,0.00,Wunderground v.1.15,2013-12-16 20:05:00,
2013-12-16 15:15:00,29.7,18.3,30.13,ENE,59,1.0,2.0,62,0.00,,,0.00,Wunderground v.1.15,2013-12-16 20:15:00,
2013-12-16 15:20:00,29.7,18.3,30.13,ENE,59,1.0,2.0,62,0.00,,,0.00,Wunderground v.1.15,2013-12-16 20:20:00,
2013-12-16 15:25:00,29.6,18.2,30.13,ENE,59,1.0,3.0,62,0.00,,,0.00,Wunderground v.1.15,2013-12-16 20:25:00,
2013-12-16 15:35:00,29.4,18.3,30.14,East,79,4.0,4.0,63,0.00,,,0.00,Wunderground v.1.15,2013-12-16 20:35:00,
2013-12-16 15:40:00,29.3,18.3,30.14,East,86,3.0,5.0,63,0.00,,,0.00,Wunderground v.1.15,2013-12-16 20:40:00,
2013-12-16 15:45:00,29.3,18.6,30.14,East,87,3.0,5.0,64,0.00,,,0.00,Wunderground v.1.15,2013-12-16 20:45:00,
2013-12-16 15:55:00,29.1,18.1,30.14,East,87,2.0,4.0,63,0.00,,,0.00,Wunderground v.1.15,2013-12-16 20:55:00,
2013-12-16 16:00:00,29.1,18.1,30.15,East,86,2.0,2.0,63,0.00,,,0.00,Wunderground v.1.15,2013-12-16 21:00:00,
2013-12-16 16:05:00,29.0,18.0,30.15,East,86,2.0,5.0,63,0.00,,,0.00,Wunderground v.1.15,2013-12-16 21:05:00,
2013-12-16 16:15:00,29.0,18.0,30.15,East,87,3.0,3.0,63,0.00,,,0.00,Wunderground v.1.15,2013-12-16 21:15:00,
2013-12-16 16:20:00,29.0,18.3,30.15,East,86,2.0,4.0,64,0.00,,,0.00,Wunderground v.1.15,2013-12-16 21:20:00,
2013-12-16 16:30:00,28.8,17.8,30.15,East,87,3.0,3.0,63,0.00,,,0.00,Wunderground v.1.15,2013-12-16 21:30:00,
2013-12-16 16:40:00,28.8,18.1,30.15,East,87,1.0,3.0,64,0.00,,,0.00,Wunderground v.1.15,2013-12-16 21:40:00,
2013-12-16 16:50:00,28.7,18.1,30.15,East,87,1.0,2.0,64,0.00,,,0.00,Wunderground v.1.15,2013-12-16 21:50:00,
2013-12-16 16:55:00,28.7,18.1,30.15,East,86,2.0,2.0,64,0.00,,,0.00,Wunderground v.1.15,2013-12-16 21:55:00,
2013-12-16 17:05:00,28.5,17.9,30.15,East,87,1.0,2.0,64,0.00,,,0.00,Wunderground v.1.15,2013-12-16 22:05:00,
2013-12-16 17:15:00,28.5,18.6,30.15,East,87,1.0,1.0,66,0.00,,,0.00,Wunderground v.1.15,2013-12-16 22:15:00,
2013-12-16 17:25:00,28.5,18.2,30.15,East,86,0.0,1.0,65,0.00,,,0.00,Wunderground v.1.15,2013-12-16 22:25:00,
2013-12-16 17:30:00,28.5,18.6,30.15,East,87,0.0,1.0,66,0.00,,,0.00,Wunderground v.1.15,2013-12-16 22:30:00,
2013-12-16 17:35:00,28.5,18.9,30.15,East,86,0.0,1.0,67,0.00,,,0.00,Wunderground v.1.15,2013-12-16 22:35:00,
2013-12-16 17:40:00,28.5,18.6,30.15,East,86,0.0,1.0,66,0.00,,,0.00,Wunderground v.1.15,2013-12-16 22:40:00,
2013-12-16 17:50:00,28.5,18.6,30.15,East,86,1.0,2.0,66,0.00,,,0.00,Wunderground v.1.15,2013-12-16 22:50:00,
2013-12-16 17:55:00,28.5,18.6,30.15,East,87,1.0,2.0,66,0.00,,,0.00,Wunderground v.1.15,2013-12-16 22:55:00,
2013-12-16 18:10:00,28.5,18.6,30.16,East,87,1.0,2.0,66,0.00,,,0.00,Wunderground v.1.15,2013-12-16 23:10:00,
2013-12-16 18:20:00,28.5,18.9,30.17,East,86,0.0,0.0,67,0.00,,,0.00,Wunderground v.1.15,2013-12-16 23:20:00,
2013-12-16 18:25:00,28.5,18.6,30.17,East,86,1.0,1.0,66,0.00,,,0.00,Wunderground v.1.15,2013-12-16 23:25:00,
2013-12-16 18:35:00,28.5,18.6,30.18,East,86,1.0,1.0,66,0.00,,,0.00,Wunderground v.1.15,2013-12-16 23:35:00,
2013-12-16 18:40:00,28.5,18.6,30.18,East,87,1.0,1.0,66,0.00,,,0.00,Wunderground v.1.15,2013-12-16 23:40:00,
2013-12-16 18:50:00,28.5,18.6,30.18,East,87,0.0,1.0,66,0.00,,,0.00,Wunderground v.1.15,2013-12-16 23:50:00,
2013-12-16 18:55:00,28.5,18.6,30.18,East,87,0.0,0.0,66,0.00,,,0.00,Wunderground v.1.15,2013-12-16 23:55:00,
2013-12-16 19:05:00,28.4,18.5,30.18,East,87,0.0,1.0,66,0.00,,,0.00,Wunderground v.1.15,2013-12-17 00:05:00,
2013-12-16 19:15:00,28.5,18.9,30.18,East,87,0.0,0.0,67,0.00,,,0.00,Wunderground v.1.15,2013-12-17 00:15:00,
2013-12-16 19:25:00,28.5,18.9,30.18,East,86,0.0,0.0,67,0.00,,,0.00,Wunderground v.1.15,2013-12-17 00:25:00,
2013-12-16 19:30:00,28.5,18.6,30.18,East,86,0.0,0.0,66,0.00,,,0.00,Wunderground v.1.15,2013-12-17 00:30:00,
2013-12-16 19:35:00,28.5,18.6,30.18,East,86,0.0,0.0,66,0.00,,,0.00,Wunderground v.1.15,2013-12-17 00:35:00,
2013-12-16 19:45:00,28.4,18.8,30.18,East,87,0.0,0.0,67,0.00,,,0.00,Wunderground v.1.15,2013-12-17 00:45:00,
2013-12-16 19:55:00,28.4,19.2,30.18,East,87,0.0,0.0,68,0.00,,,0.00,Wunderground v.1.15,2013-12-17 00:55:00,
2013-12-16 20:00:00,28.5,18.9,30.18,East,87,0.0,0.0,67,0.00,,,0.00,Wunderground v.1.15,2013-12-17 01:00:00,
2013-12-16 20:10:00,28.5,18.6,30.18,East,87,0.0,0.0,66,0.00,,,0.00,Wunderground v.1.15,2013-12-17 01:10:00,
2013-12-16 20:15:00,28.5,18.9,30.18,East,87,0.0,0.0,67,0.00,,,0.00,Wunderground v.1.15,2013-12-17 01:15:00,
2013-12-16 20:25:00,28.4,18.8,30.18,East,86,0.0,0.0,67,0.00,,,0.00,Wunderground v.1.15,2013-12-17 01:25:00,
2013-12-16 20:35:00,28.5,18.9,30.18,East,86,0.0,0.0,67,0.00,,,0.00,Wunderground v.1.15,2013-12-17 01:35:00,
2013-12-16 20:40:00,28.4,18.8,30.17,East,86,0.0,0.0,67,0.00,,,0.00,Wunderground v.1.15,2013-12-17 01:40:00,
2013-12-16 20:50:00,28.4,19.2,30.17,East,87,0.0,0.0,68,0.00,,,0.00,Wunderground v.1.15,2013-12-17 01:50:00,
2013-12-16 21:00:00,28.5,19.3,30.17,East,87,0.0,1.0,68,0.00,,,0.00,Wunderground v.1.15,2013-12-17 02:00:00,
2013-12-16 21:05:00,28.7,18.8,30.17,East,87,0.0,1.0,66,0.00,,,0.00,Wunderground v.1.15,2013-12-17 02:05:00,
2013-12-16 21:20:00,28.7,19.5,30.16,East,86,2.0,2.0,68,0.00,,,0.00,Wunderground v.1.15,2013-12-17 02:20:00,
2013-12-16 21:25:00,28.7,19.1,30.17,East,87,2.0,2.0,67,0.00,,,0.00,Wunderground v.1.15,2013-12-17 02:25:00,
2013-12-16 21:35:00,28.5,19.6,30.16,East,86,1.0,1.0,69,0.00,,,0.00,Wunderground v.1.15,2013-12-17 02:35:00,
2013-12-16 21:45:00,28.5,19.6,30.16,East,86,2.0,2.0,69,0.00,,,0.00,Wunderground v.1.15,2013-12-17 02:45:00,
2013-12-16 21:50:00,28.4,19.5,30.16,East,86,2.0,2.0,69,0.00,,,0.00,Wunderground v.1.15,2013-12-17 02:50:00,
2013-12-16 22:10:00,28.3,19.4,30.16,East,87,1.0,1.0,69,0.00,,,0.00,Wunderground v.1.15,2013-12-17 03:10:00,
2013-12-16 22:15:00,28.3,19.8,30.16,East,86,2.0,3.0,70,0.00,,,0.00,Wunderground v.1.15,2013-12-17 03:15:00,
2013-12-16 22:25:00,28.3,20.1,30.17,East,87,2.0,2.0,71,0.00,,,0.00,Wunderground v.1.15,2013-12-17 03:25:00,
2013-12-16 22:35:00,28.3,20.4,30.17,East,87,1.0,1.0,72,0.00,,,0.00,Wunderground v.1.15,2013-12-17 03:35:00,
2013-12-16 22:45:00,28.4,20.2,30.17,East,86,0.0,0.0,71,0.00,,,0.00,Wunderground v.1.15,2013-12-17 03:45:00,
2013-12-16 22:55:00,28.5,20.6,30.17,East,87,0.0,0.0,72,0.00,,,0.00,Wunderground v.1.15,2013-12-17 03:55:00,
2013-12-16 23:00:00,28.5,20.6,30.17,East,86,0.0,0.0,72,0.00,,,0.00,Wunderground v.1.15,2013-12-17 04:00:00,
2013-12-16 23:05:00,28.5,20.9,30.17,East,87,0.0,0.0,73,0.00,,,0.00,Wunderground v.1.15,2013-12-17 04:05:00,
2013-12-16 23:15:00,28.5,20.6,30.17,East,87,0.0,2.0,72,0.00,,,0.00,Wunderground v.1.15,2013-12-17 04:15:00,
2013-12-16 23:20:00,28.5,20.9,30.17,East,87,1.0,1.0,73,0.00,,,0.00,Wunderground v.1.15,2013-12-17 04:20:00,
2013-12-16 23:35:00,28.7,21.1,30.16,East,87,0.0,0.0,73,0.00,,,0.00,Wunderground v.1.15,2013-12-17 04:35:00,
2013-12-16 23:40:00,28.7,21.1,30.16,East,87,1.0,1.0,73,0.00,,,0.00,Wunderground v.1.15,2013-12-17 04:40:00,
2013-12-16 23:50:00,28.7,21.5,30.15,East,86,0.0,4.0,74,0.00,,,0.00,Wunderground v.1.15,2013-12-17 04:50:00,